Regional Weather Roundup
Issued by NWS

Home | Current Version | Previous Version | Text Only | Print | Product List | Glossary On
Versions: 1 2 3 4 5 6 7 8 9 10 11 12 13 14 15 16 17 18 19 20 21 22 23 24 25 26 27 28 29 30 31 32 33 34 35 36 37 38 39 40 41 42 43 44 45 46 47 48 49 50
000
ASUS43 KDTX 252110
RWRMI
MICHIGAN HOURLY REGIONAL WEATHER ROUNDUP
NATIONAL WEATHER SERVICE DETROIT/PONTIAC MI
500 PM EDT SUN OCT 25 2020

NOTE: "FAIR" INDICATES FEW OR NO CLOUDS BELOW 12,000 FEET WITH NO
SIGNIFICANT WEATHER AND/OR OBSTRUCTION TO VISIBILITY.

MIZ047>049-052>055-059>063-066>070-074>076-081>083-252200-
SOUTHEAST LOWER MICHIGAN

CITY           SKY/WX    TMP DP  RH WIND       PRES   REMARKS
ADRIAN         CLOUDY    45  33  63 E8        30.14F
ALMA           PTSUNNY   47  29  48 NE5       30.18S
ANN ARBOR      CLOUDY    46  29  51 E8        30.13F
BAD AXE        PTSUNNY   44  32  62 E6        30.19S
CARO           PTSUNNY   46  30  52 E5        30.18R
DETROIT CITY   CLOUDY    46  33  60 E10       30.15F
DETROIT        CLOUDY    46  30  53 NE12      30.14F
FLINT          CLOUDY    48  26  42 E7        30.17S
GROSSE ILE     CLOUDY    46  34  62 NE10      30.14S
HILLSDALE      CLOUDY    44  32  64 E7        30.13R
HOWELL         CLOUDY    45  26  47 E8        30.15F

CITY           SKY/WX    TMP DP  RH WIND       PRES   REMARKS
JACKSON        CLOUDY    45  27  49 NE8       30.14S
LAMBERTVILLE   CLOUDY    47  37  69 E5        30.12F
LANSING        CLOUDY    46  30  53 NE6       30.16F
LAPEER         CLOUDY    48  28  46 E6        30.18R
MASON          CLOUDY    45  29  53 NE6       30.16R
MONROE         CLOUDY    46  32  57 NE7       30.13F
MT. CLEMENS    CLOUDY    46  33  61 NE7       30.15F
PONTIAC        CLOUDY    45  25  45 NE10      30.14F
PORT HOPE        N/A     46  32  58 SE12      30.19R
PORT HURON     CLOUDY    45  32  61 NE8       30.18F
TRI CITIES     PTSUNNY   47  29  49 NE9       30.19S
MIDLAND        PTSUNNY   47  33  59 NE5       30.18F
TROY           CLOUDY    47  28  47 E9        30.17F
SAGINAW HB     PTSUNNY   45  34  65 NE8       30.18S
$$
MIZ043>046-050>051-056>058-064>065-071>073-077>080-252200-
SOUTHWEST LOWER MICHIGAN

CITY           SKY/WX    TMP DP  RH WIND       PRES   REMARKS
BATTLE CREEK   CLOUDY    46  29  51 NE7       30.15R
BENTON HARBOR  CLOUDY    47  28  47 E6        30.14F
BIG RAPIDS     CLOUDY    44  31  61 N3        30.18S
COLDWATER      CLOUDY    46  32  57 E7        30.14R
FREMONT        CLOUDY    44  32  61 N5        30.17F
HOLLAND        CLOUDY    47  30  51 E6        30.16F
GRAND RAPIDS   CLOUDY    46  31  55 NE7       30.17R
KALAMAZOO      CLOUDY    46  28  49 NE5       30.16R
LUDINGTON      CLOUDY    43  32  65 N7        30.20F
MARSHALL       CLOUDY    45  29  52 CALM      30.15R
MOUNT PLEASANT PTSUNNY   47  31  54 CALM      30.18S
MUSKEGON       CLOUDY    48  31  51 N6        30.18S
SOUTH HAVEN    CLOUDY    46  29  53 NE7       30.15F
$$
MIZ016>042-252200-
NORTHERN LOWER MICHIGAN

CITY           SKY/WX    TMP DP  RH WIND       PRES   REMARKS
ALPENA         CLOUDY    44  31  60 CALM      30.21F
BEAVER ISLAND  CLOUDY    39  28  66 CALM      30.22F
BELLAIRE       CLOUDY    42  26  53 CALM      30.22S
CADILLAC       CLOUDY    41  29  61 CALM      30.18R
CHARLEVOIX     PTSUNNY   42  30  62 W7        30.22R
FRANKFORT      PTSUNNY   42  26  52 W3        30.22S
GAYLORD        CLOUDY    40  28  62 CALM      30.19R
GRAYLING       CLOUDY    41  29  61 CALM      30.19S
HARBOR SPRINGS CLOUDY    39  32  78 N3        30.21F
HOUGHTON LAKE  CLOUDY    41  29  62 W5        30.20S
MANISTEE       PTSUNNY   42  30  62 N5        30.21F
OSCODA         MOSUNNY   44  33  64 E5        30.20F
PELLSTON       CLOUDY    40  31  70 N5        30.22F
ROGERS CITY    CLOUDY    41  31  68 CALM      30.23S
TRAVERSE CITY  CLOUDY    44  28  53 CALM      30.20S
$$
MIZ007>008-015-252200-
EASTERN UPPER MICHIGAN

CITY           SKY/WX    TMP DP  RH WIND       PRES   REMARKS
KINROSS        CLOUDY    37  30  75 S5        30.22S WCI  34
MACKINAC ISLAN CLOUDY    38  32  78 CALM      30.22S
NEWBERRY       CLOUDY    37  28  69 CALM      30.21S
S. S. MARIE    CLOUDY    39  29  67 E3        30.21S
MUNISING         N/A     36  30  79 NE14      30.22F WCI  27
$$
MIZ004>006-011>014-085-252200-
CENTRAL UPPER MICHIGAN

CITY           SKY/WX    TMP DP  RH WIND       PRES   REMARKS
MANISTIQUE     CLOUDY    39  27  61 N5        30.21S
ESCANABA       CLOUDY    38  28  67 W3        30.22F
MENOMINEE      CLOUDY    39  23  52 NW5       30.23F
SAWYER-GWINN   LGT SNOW  30  30 100 NE10      30.20F WCI  21
$$
MIZ001>003-009>011-084-252200-
WESTERN UPPER MICHIGAN

CITY           SKY/WX    TMP DP  RH WIND       PRES   REMARKS
IRON MOUNTAIN  LGT SNOW  33  27  78 N8        30.21F WCI  26
HOUGHTON       LGT SNOW  31  25  78 N5        30.24S WCI  26
COPPER HARBOR    N/A     35  23  61 N5        30.26F WCI  31
IRONWOOD       SNOW      28  27  93 NW5       30.26F VSB 1/2 WCI  23
$$

ABBREVIATIONS USED IN REMARKS
   TC - TEMPERATURE IN CELSIUS
  WCI - WIND CHILL INDEX
   HX - HEAT INDEX
  VSB - VISIBILITY




USA.gov is the U.S. government's official web portal to all federal, state and local government web resources and services.